| time (UTC) | temp C | wind direction | speed KPH | gust KPH | rain 1hr cm | rain 24hr cm | rain mn cm | humidity % | barometer mb |
| 20260505052100 | 9 | 166 | 0.0 | 1.6 | 0.00 | 0.13 | 0.13 | 93 | 997.4 |
| 20260505051557 | 9 | 151 | 0.0 | 0.0 | 0.00 | 0.13 | 0.13 | 93 | 997.2 |
| 20260505051055 | 9 | 172 | 0.0 | 1.6 | 0.00 | 0.13 | 0.13 | 94 | 996.9 |
| 20260505050553 | 9 | 144 | 0.0 | 0.0 | 0.00 | 0.13 | 0.13 | 94 | 997.0 |
| 20260505041520 | 9 | 168 | 0.0 | 0.0 | 0.00 | 0.13 | 0.13 | 94 | 997.2 |
| 20260505041018 | 9 | 140 | 0.0 | 0.0 | 0.00 | 0.13 | 0.13 | 94 | 997.3 |
| 20260505040515 | 9 | 142 | 3.2 | 3.2 | 0.00 | 0.13 | 0.13 | 94 | 996.8 |
| 20260505040012 | 10 | 146 | 1.6 | 1.6 | 0.00 | 0.13 | 0.13 | 94 | 997.0 |
| 20260505035508 | 10 | 80 | 1.6 | 3.2 | 0.00 | 0.13 | 0.13 | 93 | 997.0 |
| 20260505035005 | 10 | 137 | 0.0 | 0.0 | 0.00 | 0.13 | 0.13 | 93 | 996.8 |
| 20260505034501 | 10 | 144 | 0.0 | 0.0 | 0.00 | 0.13 | 0.13 | 92 | 997.2 |
| 20260505033959 | 10 | 159 | 0.0 | 0.0 | 0.13 | 0.13 | 0.13 | 91 | 997.2 |
| 20260505033455 | 10 | 160 | 0.0 | 0.0 | 0.13 | 0.13 | 0.13 | 90 | 997.0 |
| 20260505032954 | 10 | 150 | 0.0 | 0.0 | 0.18 | 0.10 | 0.10 | 89 | 996.9 |
| 20260505032451 | 10 | 147 | 0.0 | 0.0 | 0.30 | 0.10 | 0.10 | 87 | 997.0 |
| 20260505031947 | 10 | 122 | 0.0 | 1.6 | 0.13 | 0.08 | 0.08 | 85 | 997.0 |
| 20260505031444 | 10 | 136 | 0.0 | 1.6 | 0.18 | 0.05 | 0.05 | 84 | 997.0 |
| 20260505030941 | 10 | 100 | 1.6 | 3.2 | 0.18 | 0.05 | 0.05 | 84 | 997.2 |
| 20260505030437 | 10 | 130 | 1.6 | 1.6 | 0.00 | 0.03 | 0.03 | 83 | 997.0 |
| 20260505025932 | 10 | 153 | 0.0 | 0.0 | 0.13 | 0.03 | 0.03 | 83 | 996.6 |
| 20260505025429 | 11 | 185 | 1.6 | 3.2 | 0.13 | 0.03 | 0.03 | 81 | 996.1 |
| 20260505024928 | 11 | 171 | 1.6 | 1.6 | 0.13 | 0.03 | 0.03 | 79 | 996.3 |
| 20260505024425 | 11 | 149 | 1.6 | 3.2 | 0.00 | 0.00 | 0.00 | 75 | 996.1 |
| 20260505023922 | 11 | 165 | 1.6 | 3.2 | 0.00 | 0.00 | 0.00 | 72 | 996.2 |
| 20260505023419 | 11 | 144 | 0.0 | 0.0 | 0.00 | 0.00 | 0.00 | 70 | 996.1 |
| 20260505022917 | 11 | 131 | 0.0 | 0.0 | 0.00 | 0.00 | 0.00 | 69 | 995.8 |
| 20260505022414 | 11 | 135 | 0.0 | 0.0 | 0.00 | 0.00 | 0.00 | 69 | 995.7 |
| 20260505021911 | 11 | 155 | 0.0 | 0.0 | 0.00 | 0.00 | 0.00 | 69 | 995.5 |
| 20260505021407 | 11 | 147 | 3.2 | 3.2 | 0.00 | 0.00 | 0.00 | 69 | 995.8 |
| 20260505020903 | 11 | 169 | 3.2 | 4.8 | 0.00 | 0.00 | 0.00 | 69 | 995.8 |
| 20260505020359 | 12 | 126 | 4.8 | 4.8 | 0.00 | 0.00 | 0.00 | 68 | 996.1 |
| 20260505015856 | 12 | 144 | 3.2 | 4.8 | 0.00 | 0.00 | 0.00 | 68 | 995.9 |
| 20260505015353 | 12 | 102 | 6.4 | 9.7 | 0.00 | 0.00 | 0.00 | 66 | 995.9 |
| 20260505014850 | 12 | 135 | 8.0 | 12.9 | 0.00 | 0.00 | 0.00 | 67 | 995.7 |
| 20260505014347 | 12 | 132 | 9.7 | 12.9 | 0.00 | 0.00 | 0.00 | 68 | 995.8 |
| 20260505013844 | 12 | 79 | 11.3 | 14.5 | 0.00 | 0.00 | 0.00 | 69 | 995.5 |
| 20260505013341 | 12 | 149 | 6.4 | 6.4 | 0.00 | 0.00 | 0.00 | 69 | 995.5 |
| 20260505012839 | 12 | 77 | 8.0 | 9.7 | 0.00 | 0.00 | 0.00 | 69 | 995.9 |
| 20260505012337 | 12 | 130 | 6.4 | 6.4 | 0.00 | 0.00 | 0.00 | 69 | 995.7 |
| 20260505011833 | 12 | 140 | 9.7 | 14.5 | 0.00 | 0.00 | 0.00 | 69 | 995.7 |
| 20260505011330 | 12 | 137 | 14.5 | 20.9 | 0.00 | 0.00 | 0.00 | 69 | 995.5 |
| 20260505010826 | 12 | 132 | 6.4 | 6.4 | 0.00 | 0.00 | 0.00 | 70 | 995.8 |
| 20260505010322 | 12 | 97 | 12.9 | 16.1 | 0.00 | 0.00 | 0.00 | 72 | 995.7 |
| 20260505005818 | 13 | 82 | 9.7 | 11.3 | 0.00 | 0.00 | 0.00 | 66 | 995.8 |
| 20260505005315 | 15 | 75 | 4.8 | 9.7 | 0.00 | 0.00 | 0.00 | 54 | 995.2 |
| 20260505004813 | 15 | 149 | 6.4 | 11.3 | 0.00 | 0.00 | 0.00 | 53 | 995.4 |
| 20260505004308 | 15 | 140 | 6.4 | 9.7 | 0.00 | 0.00 | 0.00 | 54 | 995.2 |
| 20260505003806 | 15 | 143 | 8.0 | 11.3 | 0.00 | 0.00 | 0.00 | 55 | 995.2 |
| 20260505003303 | 15 | 149 | 8.0 | 9.7 | 0.00 | 0.00 | 0.00 | 55 | 995.2 |
| 20260505002759 | 15 | 130 | 9.7 | 11.3 | 0.00 | 0.00 | 0.00 | 54 | 995.4 |
| 20260505002257 | 15 | 138 | 11.3 | 14.5 | 0.00 | 0.00 | 0.00 | 53 | 995.2 |
| 20260505001755 | 15 | 116 | 8.0 | 9.7 | 0.00 | 0.00 | 0.00 | 53 | 995.1 |
| 20260505001252 | 15 | 135 | 4.8 | 6.4 | 0.00 | 0.00 | 0.00 | 54 | 995.1 |
| 20260505000749 | 15 | 124 | 6.4 | 9.7 | 0.00 | 0.00 | 0.00 | 57 | 995.0 |
| 20260505000247 | 15 | 162 | 8.0 | 11.3 | 0.00 | 0.00 | 0.00 | 56 | 995.2 |
| 20260504235743 | 15 | 147 | 6.4 | 9.7 | 0.00 | 0.00 | 0.00 | 57 | 995.0 |
| 20260504235239 | 15 | 132 | 3.2 | 4.8 | 0.00 | 0.00 | 0.00 | 56 | 995.1 |
| 20260504234736 | 14 | 159 | 6.4 | 6.4 | 0.00 | 0.00 | 0.00 | 58 | 994.8 |
| 20260504234234 | 14 | 149 | 11.3 | 14.5 | 0.00 | 0.00 | 0.00 | 57 | 994.8 |
| 20260504233730 | 13 | 135 | 11.3 | 12.9 | 0.00 | 0.00 | 0.00 | 60 | 995.1 |
| 20260504233226 | 13 | 140 | 11.3 | 12.9 | 0.00 | 0.00 | 0.00 | 63 | 995.2 |
| 20260504232723 | 13 | 76 | 9.7 | 11.3 | 0.00 | 0.00 | 0.00 | 62 | 995.2 |
| 20260504232220 | 13 | 142 | 6.4 | 9.7 | 0.00 | 0.00 | 0.00 | 63 | 995.1 |
| 20260504231716 | 15 | 82 | 8.0 | 16.1 | 0.00 | 0.00 | 0.00 | 62 | 995.1 |
| 20260504231213 | 16 | 93 | 8.0 | 11.3 | 0.00 | 0.00 | 0.00 | 52 | 995.0 |
| 20260504230709 | 17 | 96 | 6.4 | 9.7 | 0.00 | 0.00 | 0.00 | 43 | 994.6 |
| 20260504230208 | 17 | 114 | 4.8 | 6.4 | 0.00 | 0.00 | 0.00 | 42 | 994.5 |
| 20260504225706 | 17 | 82 | 3.2 | 6.4 | 0.00 | 0.00 | 0.00 | 41 | 994.3 |
| 20260504225202 | 17 | 135 | 6.4 | 6.4 | 0.00 | 0.00 | 0.00 | 40 | 994.3 |
| 20260504224659 | 17 | 123 | 8.0 | 11.3 | 0.00 | 0.00 | 0.00 | 40 | 993.8 |
| 20260504224156 | 17 | 152 | 9.7 | 12.9 | 0.00 | 0.00 | 0.00 | 39 | 994.0 |
| 20260504223653 | 17 | 159 | 9.7 | 12.9 | 0.00 | 0.00 | 0.00 | 39 | 994.0 |
| 20260504223148 | 17 | 112 | 9.7 | 12.9 | 0.00 | 0.00 | 0.00 | 39 | 993.7 |
| 20260504222646 | 17 | 141 | 4.8 | 6.4 | 0.00 | 0.00 | 0.00 | 41 | 993.9 |
| 20260504222142 | 17 | 149 | 4.8 | 4.8 | 0.00 | 0.00 | 0.00 | 41 | 993.7 |
| 20260504221640 | 17 | 122 | 4.8 | 4.8 | 0.00 | 0.00 | 0.00 | 40 | 993.3 |
| 20260504221137 | 17 | 153 | 8.0 | 9.7 | 0.00 | 0.00 | 0.00 | 41 | 993.6 |
| 20260504220633 | 17 | 120 | 8.0 | 9.7 | 0.00 | 0.00 | 0.00 | 42 | 993.2 |
| 20260504220131 | 17 | 134 | 4.8 | 6.4 | 0.00 | 0.00 | 0.00 | 44 | 993.3 |
| 20260504215627 | 17 | 205 | 3.2 | 4.8 | 0.00 | 0.00 | 0.00 | 41 | 993.5 |
| 20260504215125 | 16 | 111 | 6.4 | 9.7 | 0.00 | 0.00 | 0.00 | 45 | 993.5 |
| 20260504214620 | 16 | 191 | 8.0 | 11.3 | 0.00 | 0.00 | 0.00 | 48 | 993.7 |
| 20260504214117 | 16 | 110 | 17.7 | 22.5 | 0.00 | 0.00 | 0.00 | 50 | 994.1 |
| 20260504213613 | 16 | 115 | 14.5 | 20.9 | 0.00 | 0.00 | 0.00 | 48 | 994.3 |
| 20260504213110 | 17 | 88 | 8.0 | 9.7 | 0.00 | 0.00 | 0.00 | 42 | 994.6 |
| 20260504212606 | 16 | 112 | 6.4 | 11.3 | 0.00 | 0.00 | 0.00 | 40 | 994.7 |
| 20260504212104 | 16 | 136 | 6.4 | 6.4 | 0.00 | 0.00 | 0.00 | 41 | 995.0 |
| 20260504211601 | 17 | 143 | 20.9 | 25.7 | 0.00 | 0.00 | 0.00 | 38 | 995.0 |
| 20260504211057 | 17 | 161 | 1.6 | 3.2 | 0.00 | 0.00 | 0.00 | 36 | 994.6 |
| 20260504210555 | 17 | 128 | 3.2 | 6.4 | 0.00 | 0.00 | 0.00 | 35 | 994.6 |
| 20260504210051 | 17 | 92 | 11.3 | 16.1 | 0.00 | 0.00 | 0.00 | 37 | 994.4 |
| 20260504205549 | 18 | 135 | 14.5 | 22.5 | 0.00 | 0.00 | 0.00 | 39 | 994.3 |
| 20260504205047 | 18 | 163 | 11.3 | 17.7 | 0.00 | 0.00 | 0.00 | 33 | 994.0 |
| 20260504204544 | 18 | 115 | 24.1 | 30.6 | 0.00 | 0.00 | 0.00 | 33 | 993.9 |
| 20260504204044 | 18 | 148 | 19.3 | 27.4 | 0.00 | 0.00 | 0.00 | 32 | 993.5 |
| 20260504203541 | 19 | 136 | 19.3 | 25.7 | 0.00 | 0.00 | 0.00 | 31 | 993.1 |
| 20260504203038 | 19 | 141 | 24.1 | 30.6 | 0.00 | 0.00 | 0.00 | 29 | 992.8 |
| 20260504202533 | 19 | 143 | 20.9 | 27.4 | 0.00 | 0.00 | 0.00 | 29 | 993.0 |
| 20260504202031 | 20 | 123 | 29.0 | 40.2 | 0.00 | 0.00 | 0.00 | 30 | 992.8 |
| 20260504201527 | 20 | 153 | 29.0 | 40.2 | 0.00 | 0.00 | 0.00 | 29 | 992.9 |
| 20260504201026 | 21 | 142 | 19.3 | 22.5 | 0.00 | 0.00 | 0.00 | 25 | 993.0 |
| 20260504200521 | 22 | 102 | 12.9 | 20.9 | 0.00 | 0.00 | 0.00 | 24 | 993.2 |
| 20260504200019 | 22 | 143 | 12.9 | 20.9 | 0.00 | 0.00 | 0.00 | 22 | 993.0 |
| 20260504195515 | 22 | 96 | 11.3 | 16.1 | 0.00 | 0.00 | 0.00 | 23 | 993.2 |
| 20260504195011 | 22 | 159 | 16.1 | 20.9 | 0.00 | 0.00 | 0.00 | 24 | 993.2 |
| 20260504194508 | 22 | 136 | 9.7 | 12.9 | 0.00 | 0.00 | 0.00 | 23 | 993.0 |
| 20260504194003 | 23 | 112 | 4.8 | 6.4 | 0.00 | 0.00 | 0.00 | 24 | 993.0 |
| 20260504193500 | 24 | 162 | 19.3 | 25.7 | 0.00 | 0.00 | 0.00 | 24 | 992.8 |
| 20260504192959 | 24 | 138 | 11.3 | 16.1 | 0.00 | 0.00 | 0.00 | 23 | 992.6 |
| 20260504192456 | 23 | 132 | 8.0 | 9.7 | 0.00 | 0.00 | 0.00 | 23 | 992.8 |
| 20260504191955 | 23 | 103 | 6.4 | 9.7 | 0.00 | 0.00 | 0.00 | 23 | 992.9 |
| 20260504191452 | 23 | 140 | 11.3 | 14.5 | 0.00 | 0.00 | 0.00 | 23 | 992.9 |
| 20260504190947 | 23 | 132 | 3.2 | 3.2 | 0.00 | 0.00 | 0.00 | 22 | 992.8 |
| 20260504190444 | 23 | 150 | 1.6 | 3.2 | 0.00 | 0.00 | 0.00 | 22 | 992.9 |
| 20260504185940 | 23 | 149 | 3.2 | 6.4 | 0.00 | 0.00 | 0.00 | 23 | 992.8 |
| 20260504185438 | 23 | 98 | 6.4 | 6.4 | 0.00 | 0.00 | 0.00 | 23 | 993.1 |
| 20260504184934 | 23 | 244 | 3.2 | 3.2 | 0.00 | 0.00 | 0.00 | 22 | 993.0 |
| 20260504184429 | 23 | 157 | 1.6 | 3.2 | 0.00 | 0.00 | 0.00 | 22 | 993.1 |
| 20260504183925 | 23 | 165 | 4.8 | 9.7 | 0.00 | 0.00 | 0.00 | 23 | 993.0 |
| 20260504183423 | 22 | 146 | 3.2 | 4.8 | 0.00 | 0.00 | 0.00 | 24 | 993.1 |
| 20260504182921 | 22 | 149 | 3.2 | 4.8 | 0.00 | 0.00 | 0.00 | 24 | 993.2 |
| 20260504182417 | 22 | 148 | 3.2 | 4.8 | 0.00 | 0.00 | 0.00 | 26 | 993.5 |
| 20260504181914 | 22 | 324 | 6.4 | 9.7 | 0.00 | 0.00 | 0.00 | 26 | 993.2 |
| 20260504181412 | 22 | 86 | 9.7 | 14.5 | 0.00 | 0.00 | 0.00 | 26 | 993.5 |
| 20260504180910 | 22 | 42 | 4.8 | 4.8 | 0.00 | 0.00 | 0.00 | 27 | 993.5 |
| 20260504180409 | 22 | 166 | 1.6 | 3.2 | 0.00 | 0.00 | 0.00 | 25 | 993.7 |
| 20260504175907 | 21 | 347 | 1.6 | 1.6 | 0.00 | 0.00 | 0.00 | 27 | 993.6 |
| 20260504175403 | 21 | 3 | 4.8 | 4.8 | 0.00 | 0.00 | 0.00 | 27 | 993.9 |
| 20260504174901 | 21 | 181 | 4.8 | 9.7 | 0.00 | 0.00 | 0.00 | 27 | 993.7 |
| 20260504174358 | 22 | 145 | 8.0 | 12.9 | 0.00 | 0.00 | 0.00 | 26 | 993.9 |
| 20260504173855 | 21 | 112 | 3.2 | 11.3 | 0.00 | 0.00 | 0.00 | 26 | 993.8 |
| 20260504173352 | 21 | 301 | 8.0 | 9.7 | 0.00 | 0.00 | 0.00 | 27 | 993.9 |
| 20260504172849 | 21 | 111 | 3.2 | 4.8 | 0.00 | 0.00 | 0.00 | 27 | 994.0 |
| 20260504172346 | 21 | 19 | 3.2 | 12.9 | 0.00 | 0.00 | 0.00 | 29 | 994.1 |
| 20260504171841 | 21 | 94 | 3.2 | 6.4 | 0.00 | 0.00 | 0.00 | 28 | 994.1 |
| 20260504171339 | 20 | 95 | 3.2 | 3.2 | 0.00 | 0.00 | 0.00 | 29 | 994.0 |
| 20260504170836 | 20 | 143 | 0.0 | 0.0 | 0.00 | 0.00 | 0.00 | 30 | 993.9 |
| 20260504170332 | 20 | 91 | 6.4 | 6.4 | 0.00 | 0.00 | 0.00 | 29 | 994.3 |
| 20260504160251 | 18 | 153 | 3.2 | 3.2 | 0.00 | 0.00 | 0.00 | 31 | 994.3 |
| 20260504150716 | 13 | 163 | 0.0 | 0.0 | 0.00 | 0.00 | 0.00 | 43 | 994.7 |
| 20260504150213 | 13 | 163 | 0.0 | 0.0 | 0.00 | 0.00 | 0.00 | 43 | 994.6 |
| 20260504141142 | 11 | 131 | 1.6 | 1.6 | 0.00 | 0.00 | 0.00 | 51 | 994.6 |
| 20260504140639 | 10 | 164 | 0.0 | 0.0 | 0.00 | 0.00 | 0.00 | 51 | 994.6 |
| 20260504140134 | 10 | 158 | 0.0 | 0.0 | 0.00 | 0.00 | 0.00 | 52 | 995.1 |
| 20260504130603 | 6 | 143 | 0.0 | 0.0 | 0.00 | 0.00 | 0.00 | 68 | 994.8 |
| 20260504110451 | 6 | 162 | 0.0 | 0.0 | 0.00 | 0.00 | 0.00 | 55 | 995.3 |
| 20260504100413 | 6 | 152 | 0.0 | 0.0 | 0.00 | 0.00 | 0.00 | 64 | 995.4 |
| 20260504081806 | 10 | 169 | 0.0 | 0.0 | 0.00 | 0.00 | 0.00 | 56 | 996.0 |
| 20260504081303 | 10 | 117 | 1.6 | 1.6 | 0.00 | 0.00 | 0.00 | 48 | 995.9 |
| 20260504080759 | 10 | 134 | 0.0 | 1.6 | 0.00 | 0.00 | 0.00 | 47 | 996.1 |
| 20260504080255 | 10 | 122 | 1.6 | 1.6 | 0.00 | 0.00 | 0.00 | 47 | 995.9 |
| 20260504070223 | 12 | 143 | 8.0 | 9.7 | 0.00 | 0.00 | 0.00 | 42 | 996.6 |
| 20260504060143 | 12 | 145 | 6.4 | 6.4 | 0.00 | 0.00 | 0.00 | 40 | 996.5 |